Hourly Weather Rusenka

Today, 23 April, Friday

Time Temperature Precipitation Wind Pressure Humidity
00:00 +7°C° 0.6 mm 3 mps 740 mmHg 89%
01:00 +5°C° 0.6 mm 3 mps 740 mmHg 89%
02:00 +5°C° 0.6 mm 3 mps 740 mmHg 88%
03:00 +4°C° 0 mm 3 mps 740 mmHg 88%
04:00 +4°C° 0 mm 3 mps 740 mmHg 87%
05:00 +4°C° 0 mm 3 mps 740 mmHg 86%
06:00 +4°C° 0 mm 3 mps 740 mmHg 81%
07:00 +5°C° 0 mm 4 mps 741 mmHg 75%
08:00 +5°C° 0 mm 5 mps 741 mmHg 69%
09:00 +6°C° 0 mm 5 mps 741 mmHg 63%
10:00 +5°C° 0 mm 6 mps 741 mmHg 56%
11:00 +6°C° 0 mm 7 mps 741 mmHg 50%
12:00 +6°C° 0 mm 7 mps 741 mmHg 49%
13:00 +6°C° 0 mm 7 mps 741 mmHg 48%
14:00 +7°C° 0 mm 6 mps 741 mmHg 47%
15:00 +7°C° 0 mm 6 mps 741 mmHg 49%
16:00 +5°C° 0 mm 6 mps 741 mmHg 52%
17:00 +6°C° 0 mm 5 mps 741 mmHg 54%
18:00 +5°C° 0 mm 4 mps 741 mmHg 61%
19:00 +3°C° 0 mm 3 mps 741 mmHg 68%
20:00 +2°C° 0 mm 3 mps 741 mmHg 74%
21:00 +3°C° 0 mm 2 mps 741 mmHg 77%
22:00 +2°C° 0 mm 2 mps 741 mmHg 79%
23:00 +2°C° 0 mm 2 mps 741 mmHg 81%

Tomorrow, 24 April, Saturday

Time Temperature Precipitation Wind Pressure Humidity
00:00 +2°C° 0 mm 2 mps 740 mmHg 82%
01:00 +2°C° 0 mm 2 mps 740 mmHg 83%
02:00 +1°C° 0 mm 3 mps 740 mmHg 84%
03:00 0°C° 0.6 mm 3 mps 740 mmHg 89%
04:00 0°C° 0.6 mm 3 mps 739 mmHg 94%
05:00 0°C° 0.6 mm 3 mps 739 mmHg 98%
06:00 -1°C° 1.3 mm 4 mps 739 mmHg 96%
07:00 -1°C° 1.3 mm 5 mps 740 mmHg 95%
08:00 -3°C° 1.3 mm 7 mps 740 mmHg 93%
09:00 -2°C° 0.4 mm 7 mps 740 mmHg 88%
10:00 -1°C° 0.4 mm 7 mps 741 mmHg 83%
11:00 -1°C° 0.4 mm 7 mps 741 mmHg 79%
12:00 -1°C° 0 mm 6 mps 741 mmHg 76%
13:00 +1°C° 0 mm 6 mps 742 mmHg 74%
14:00 +1°C° 0 mm 6 mps 742 mmHg 71%
15:00 +1°C° 0.1 mm 6 mps 742 mmHg 70%
16:00 +2°C° 0.1 mm 5 mps 742 mmHg 69%
17:00 +2°C° 0.1 mm 5 mps 742 mmHg 68%
18:00 +1°C° 0.1 mm 5 mps 742 mmHg 73%
19:00 0°C° 0.1 mm 4 mps 742 mmHg 78%
20:00 0°C° 0.1 mm 3 mps 742 mmHg 83%
21:00 -1°C° 0 mm 4 mps 742 mmHg 85%
22:00 -2°C° 0 mm 4 mps 742 mmHg 87%
23:00 -2°C° 0 mm 4 mps 742 mmHg 89%

Day after tomorrow, 25 April, Sunday

Time Temperature Precipitation Wind Pressure Humidity
00:00 -3°C° 0 mm 4 mps 742 mmHg 90%
01:00 -3°C° 0 mm 4 mps 742 mmHg 91%
02:00 -3°C° 0 mm 4 mps 742 mmHg 92%
03:00 -3°C° 0 mm 4 mps 742 mmHg 92%
04:00 -4°C° 0 mm 3 mps 742 mmHg 92%
05:00 -4°C° 0 mm 3 mps 742 mmHg 91%
06:00 -3°C° 0 mm 4 mps 742 mmHg 85%
07:00 -2°C° 0 mm 4 mps 742 mmHg 78%
08:00 0°C° 0 mm 5 mps 742 mmHg 71%
09:00 0°C° 0 mm 5 mps 742 mmHg 67%
10:00 +1°C° 0 mm 5 mps 742 mmHg 63%
11:00 +1°C° 0 mm 6 mps 742 mmHg 59%
12:00 +2°C° 0.1 mm 6 mps 742 mmHg 58%
13:00 +2°C° 0.1 mm 6 mps 742 mmHg 57%
14:00 +3°C° 0.1 mm 6 mps 742 mmHg 55%
15:00 +3°C° 0.1 mm 5 mps 742 mmHg 57%
16:00 +3°C° 0.1 mm 5 mps 741 mmHg 58%
17:00 +3°C° 0.1 mm 5 mps 741 mmHg 60%
18:00 +1°C° 0 mm 4 mps 742 mmHg 66%
19:00 0°C° 0 mm 4 mps 742 mmHg 72%
20:00 0°C° 0 mm 3 mps 742 mmHg 78%
21:00 -1°C° 0 mm 3 mps 742 mmHg 80%
22:00 -1°C° 0 mm 3 mps 742 mmHg 83%
23:00 -2°C° 0 mm 3 mps 742 mmHg 85%

26 April, Monday

Time Temperature Precipitation Wind Pressure Humidity
00:00 -2°C° 0 mm 3 mps 742 mmHg 85%
01:00 -2°C° 0 mm 3 mps 742 mmHg 85%
02:00 -2°C° 0 mm 3 mps 742 mmHg 85%
03:00 -2°C° 0 mm 2 mps 742 mmHg 85%
04:00 -2°C° 0 mm 2 mps 742 mmHg 85%
05:00 -2°C° 0 mm 2 mps 741 mmHg 85%
06:00 -1°C° 0 mm 3 mps 741 mmHg 79%
07:00 0°C° 0 mm 3 mps 741 mmHg 74%
08:00 +2°C° 0 mm 3 mps 741 mmHg 69%
09:00 +3°C° 0.1 mm 4 mps 741 mmHg 62%
10:00 +3°C° 0.1 mm 4 mps 741 mmHg 55%
11:00 +3°C° 0.1 mm 5 mps 741 mmHg 47%
12:00 +5°C° 0 mm 5 mps 740 mmHg 45%
13:00 +5°C° 0 mm 5 mps 740 mmHg 43%
14:00 +4°C° 0 mm 6 mps 740 mmHg 41%
15:00 +5°C° 0.1 mm 5 mps 740 mmHg 47%
16:00 +5°C° 0.1 mm 5 mps 740 mmHg 53%
17:00 +3°C° 0.1 mm 5 mps 740 mmHg 59%
18:00 +3°C° 0.1 mm 4 mps 740 mmHg 66%
19:00 +2°C° 0.1 mm 3 mps 740 mmHg 73%
20:00 +1°C° 0.1 mm 3 mps 740 mmHg 79%
21:00 0°C° 0 mm 3 mps 740 mmHg 82%
22:00 0°C° 0 mm 3 mps 739 mmHg 84%
23:00 -1°C° 0 mm 3 mps 739 mmHg 87%

27 April, Tuesday

Time Temperature Precipitation Wind Pressure Humidity
00:00 -1°C° 0 mm 3 mps 739 mmHg 89%
01:00 -2°C° 0 mm 3 mps 739 mmHg 91%
02:00 -2°C° 0 mm 3 mps 739 mmHg 93%
03:00 -2°C° 0 mm 3 mps 739 mmHg 93%
04:00 -2°C° 0 mm 3 mps 740 mmHg 93%
05:00 -2°C° 0 mm 2 mps 740 mmHg 93%
06:00 -1°C° 0 mm 3 mps 740 mmHg 85%
07:00 +1°C° 0 mm 3 mps 740 mmHg 78%
08:00 +1°C° 0 mm 4 mps 740 mmHg 70%
09:00 +3°C° 0.1 mm 4 mps 740 mmHg 64%
10:00 +3°C° 0.1 mm 5 mps 740 mmHg 57%
11:00 +5°C° 0.1 mm 5 mps 741 mmHg 51%
12:00 +5°C° 0.1 mm 5 mps 740 mmHg 49%
13:00 +6°C° 0.1 mm 5 mps 740 mmHg 48%
14:00 +6°C° 0.1 mm 5 mps 740 mmHg 47%
15:00 +6°C° 0 mm 5 mps 741 mmHg 47%
16:00 +6°C° 0 mm 4 mps 741 mmHg 47%
17:00 +6°C° 0 mm 4 mps 741 mmHg 47%
18:00 +5°C° 0 mm 3 mps 741 mmHg 55%
19:00 +3°C° 0 mm 3 mps 741 mmHg 62%
20:00 +2°C° 0 mm 2 mps 742 mmHg 70%
21:00 +3°C° 0 mm 1 mps 742 mmHg 72%
22:00 +2°C° 0 mm 1 mps 742 mmHg 74%
23:00 +1°C° 0 mm 0 mps 742 mmHg 77%

28 April, Wednesday

Time Temperature Precipitation Wind Pressure Humidity
00:00 +2°C° 0 mm 1 mps 742 mmHg 77%
01:00 +2°C° 0 mm 1 mps 742 mmHg 77%
02:00 -1°C° 0 mm 2 mps 742 mmHg 77%
03:00 +1°C° 0 mm 2 mps 742 mmHg 76%
04:00 +1°C° 0 mm 2 mps 742 mmHg 75%
05:00 +1°C° 0 mm 2 mps 742 mmHg 74%
06:00 +1°C° 0 mm 3 mps 742 mmHg 70%
07:00 +3°C° 0 mm 3 mps 742 mmHg 66%
08:00 +4°C° 0 mm 4 mps 742 mmHg 62%
09:00 +6°C° 0 mm 5 mps 742 mmHg 60%
10:00 +7°C° 0 mm 5 mps 741 mmHg 59%
11:00 +8°C° 0 mm 6 mps 741 mmHg 57%
12:00 +6°C° 0.3 mm 7 mps 741 mmHg 66%
13:00 +5°C° 0.3 mm 7 mps 740 mmHg 75%
14:00 +4°C° 0.3 mm 8 mps 740 mmHg 84%
15:00 +4°C° 1 mm 7 mps 740 mmHg 87%
16:00 +3°C° 1 mm 7 mps 739 mmHg 91%
17:00 +3°C° 1 mm 7 mps 739 mmHg 95%
18:00 +3°C° 0.8 mm 6 mps 738 mmHg 95%
19:00 +3°C° 0.8 mm 6 mps 738 mmHg 95%
20:00 +3°C° 0.8 mm 6 mps 738 mmHg 95%
21:00 +4°C° 0.1 mm 6 mps 738 mmHg 95%
22:00 +4°C° 0.1 mm 6 mps 737 mmHg 95%
23:00 +5°C° 0.1 mm 6 mps 737 mmHg 95%
Show more